Location: Asheville, NC
(35.6000°N, 82.5500°W)
Time: 00:29:35
(UTC-04:00)

ITAMSAT 1 - Pass Details

Date: 13 March 2018
Orbit: 784 x 796 km, 98.9° (Epoch: 24 June)

Event Time Altitude Azimuth Distance (km) Brightness Sun altitude
Rises 04:33:34 0° 29° (NNE) 3,300 11.6 -38.2°
Reaches altitude 10° 04:36:22 10° 43° (NE) 2,364 10.8 -37.7°
Maximum altitude 04:40:30 24° 96° (E) 1,611 9.6 -37.0°
Enters shadow 04:40:42 23° 99° (E) 1,613 9.6 -37.0°
